Regional Weather Roundup
Issued by NWS San Diego, CA

Home | Current Version | Previous Version | Text Only | Print | Product List | Glossary On
Versions: 1 2 3 4 5 6 7 8 9 10 11 12 13 14 15 16 17 18 19 20 21 22 23 24 25 26 27 28 29 30 31 32 33 34 35 36 37 38 39 40 41 42 43 44 45 46 47 48 49 50
000
ASUS46 KSGX 200810
RWRSGX

SAN DIEGO HOURLY WEATHER ROUNDUP
NATIONAL WEATHER SERVICE SAN DIEGO CA
1200 AM PST SAT DEC 20 2014

NOTE: "FAIR" INDICATES FEW OR NO CLOUDS BELOW 12,000 FEET WITH NO
SIGNIFICANT WEATHER AND/OR OBSTRUCTIONS TO VISIBILITY.

CAZ042-043-060-061-PZZ750-775-200900-

GREATER SAN DIEGO AREA

CITY           SKY/WX    TMP DP  RH WIND       PRES   REMARKS
LINDBERGH FLD  MOCLDY    57  51  80 CALM      30.19S
POINT LOMA       N/A     57  53  86 NE3         N/A
NATIONAL CITY    N/A     55  52  88 CALM      30.18S
CHULA VISTA      N/A     53  51  93 CALM      30.11S
IMPERIAL BEACH PTCLDY    55  51  86 E5        30.18R
BROWN FIELD    MOCLDY    53  50  89 NE5       30.17R
MIRAMAR MCAS   MOCLDY    52  48  86 NE6       30.17S
MONTGOMERY FLD PTCLDY    55  51  86 N5        30.17S

$$

NORTH SAN DIEGO COUNTY

CITY           SKY/WX    TMP DP  RH WIND       PRES   REMARKS
CAMP PENDLETON CLEAR     49  45  86 CALM      30.17F
OCEANSIDE AP   CLEAR     48  45  89 CALM      30.16F FOG
OCEANSIDE HBR    N/A     53  51  92 E5        30.19F
VISTA            N/A     53  49  87 CALM      30.16F
CARLSBAD       CLEAR     53  49  86 E6        30.15F
DEL MAR          N/A     55  52  91 CALM      30.19F
LA JOLLA SCRIP   N/A     59  54  84 CALM      30.14F
FALLBROOK        N/A     51  51 100 CALM      30.19F
ESCONDIDO        N/A     51  47  86 CALM      30.20F
SAN MARCOS       N/A     53  49  87 CALM      30.17S
POWAY            N/A     49  46  90 CALM      30.21S

$$

EAST SAN DIEGO COUNTY

CITY           SKY/WX    TMP DP  RH WIND       PRES   REMARKS
RAMONA         FOG       46  46 100 E3        30.18R VSB<1/4
SANTEE LAKES     N/A     50  48  92 CALM      30.20R
LA MESA          N/A     53  49  86 NE3       30.12S
JAMUL            N/A     48  46  91 CALM      30.19R
DESCANSO N       N/A     41  36  84 CALM      30.12F
MT. LAGUNA OBS   N/A     44  -9  10 CALM      29.74F
CAMPO            N/A     38  35  89 NW6       30.14F WCI  33

$$

ORANGE COUNTY AND THE LOS ANGELES BASIN

CITY           SKY/WX    TMP DP  RH WIND       PRES   REMARKS
JOHN WAYNE AP  CLEAR     57  49  74 CALM      30.17S
LAGUNA BEACH     N/A     50  48  92 NW2       30.13F
LAKE FOREST FR   N/A     50  43  78 CALM      30.08F
SANTA ANA        N/A     51  47  86 CALM      30.13S
HUNTINGTON BCH   N/A     50  48  92 CALM      30.19S
LOS ALAMITOS   FAIR      51  50  95 CALM      30.18R
FULLERTON      CLEAR     53  48  83 CALM      30.17S
LONG BEACH     CLEAR     53  50  89 CALM      30.18R
L.A. AP        CLEAR     56  48  74 VRB3      30.18R
L.A. DOWNTOWN  CLEAR     53  47  79 CALM      30.18R

$$

THE INLAND EMPIRE

CITY           SKY/WX    TMP DP  RH WIND       PRES   REMARKS
CORONA         CLEAR     46  46 100 CALM      30.19S
CHINO          CLEAR     48  46  93 NE3       30.19S FOG
ONTARIO        PTCLDY    52  47  83 CALM      30.17F
RIVERSIDE AP   CLEAR     50  47  89 NE3       30.18S
RIV CYN CREST    N/A     50  50 100 SE2         N/A
MORENO VALLEY    N/A     48  47  95 CALM      29.37S
MARCH ARB      CLEAR     44  44 100 CALM      30.18R
HORSETHIEF CYN   N/A     47  40  77 CALM      30.19F
PERRIS           N/A     51  49  93 NE1       30.19S
MENIFEE          N/A     47  46  95 CALM      30.28S
HEMET EAST       N/A     46  36  69 CALM      30.20S
FRENCH VALLEY  FAIR      46  43  87 CALM      30.18F
TEMECULA         N/A     47  45  93 CALM      30.15S

$$

SAN BERNARDINO AND RIVERSIDE COUNTY MOUNTAINS

CITY           SKY/WX    TMP DP  RH WIND       PRES   REMARKS
BIG BEAR AP    CLEAR     27  23  86 CALM      30.22S
PINE COVE        N/A     39  15  38 N3        30.21F

$$

SOUTHERN DESERT INCLUDING THE COACHELLA VALLEY

CITY           SKY/WX    TMP DP  RH WIND       PRES   REMARKS
PALM SPRINGS   PTCLDY    52  42  69 CALM      30.17S
THOUSAND PALMS   N/A     50  42  72 CALM      30.12F
PALM DESERT      N/A     50  44  79 CALM      26.28F
THERMAL        PTCLDY    45  39  79 NW5       30.14S
BLYTHE         PTCLDY    48  46  93 N7        30.15S
IMPERIAL AP    PTCLDY    48  39  71 SE3       30.12F
EL CENTRO NAS  PTCLDY    47  39  74 S3        30.13F
YUMA AZ        PTCLDY    50  41  71 CALM      30.13F

$$

UPPER DESERT

CITY           SKY/WX    TMP DP  RH WIND       PRES   REMARKS
VICTORVILLE AP   N/A     43  36  75 CALM      30.18R
HESPERIA         N/A     43  38  81 W3        30.35F
APPLE VALLEY     N/A     42  36  77 CALM      30.22S
PALMDALE       CLEAR     44  40  85 CALM      30.18R
LANCASTER      CLEAR     43  38  82 NE3       30.19R
EDWARDS AFB    PTCLDY    41  39  95 NE2       30.18R
DAGGETT        CLEAR     42  37  82 W3        30.18S
29 PALMS N     PTCLDY    43  36  76 CALM      30.23S
NEEDLES        CLEAR     48  41  76 S3        30.16F

$$

REGIONAL REPORTS

CITY           SKY/WX    TMP DP  RH WIND       PRES   REMARKS
SANTA BARBARA  MOCLDY    50  48  93 NW3       30.18S
SANDBERG       MOCLDY    46  41  82 N10       30.23R
MT. WILSON       N/A     39  28  65 MISG        N/A
LAS VEGAS NV   MOCLDY    46  37  71 S7        30.14F
PHOENIX AZ     CLOUDY    51  42  71 E3        30.12S
TIJUANA        PTCLDY    54  48  82 CALM      30.19S
ENSENADA NW      N/A     56  32  39 NW3       30.14F

$$

OFFSHORE ISLANDS

CITY           SKY/WX    TMP DP  RH WIND       PRES   REMARKS
CATALINA ARPT  CLOUDY    51  50  96 NW8       30.19R
SAN NICOLAS IS CLEAR    N/A N/A N/A W10       30.20R

$$

MARINE AND OFFSHORE BUOY REPORTS

STATION/POSITION SKY/WX   TEMP    WIND        PRES    SWELL
                          AIR SEA DIR/SP/G            HT/PER/DIR
                          (F)     (DEG/KT/KT) (MB)    (FT/S/D)
TANNER BANKS               61 64  310/  6/  8 1022.4R   7/310/13
S CLEMENTE BASIN           62 65  340/  8/ 10 1021.5F   3/280/11
SAN NICOLAS IS.               63                N/A     5/310/20
SO. S. ROSA ISLA           61 62  280/  6/  8 1022.1R   7/19
W. S. BARBARA CH           60 63  330/  2/  4 1021.9R   7/310/21
S. MONICA BASIN            61 63  290/  4/  4 1021.9F   3/250/12
S PEDRO CHANNEL               64                N/A     2/260/13
DANA POINT                    64                N/A     3/280/12
CMP PENDLETON NS              64                N/A     2/250/12
OCEANSIDE OFFSHR              64                N/A     2/240/13
TORREY PINES OTR              65                N/A     3/280/12
LA JOLLA 1                 61 64   20/  8/  9 1021.7S
MISSION BAY BUOY              65                N/A     2/280/11
SAN DIEGO BAY                 65              1022.3F
POINT LOMA SOUTH              65                N/A     3/250/13

$$




USA.gov is the U.S. government's official web portal to all federal, state and local government web resources and services.